SCP
0 0 0 0 0 0 0 0 0 0 0 0 0 0 0 0 0 0 0 0 0 0 0 0 0 0 0 0 0 0 0 0 0 0 0 0 0 0 0 0 0 0 0
0 0 0 0 0 0 0 0 0 0 0 0 0 0 0 0 0 0 0 0 0 0 0 0 0 0 0 0 0 0 0 0 0 0 0 0 0 0 0 0 0 0 0
0 0 0 0 0 0 0 0 0 0 0 0 0 0 0 0 0 0 0 0 0 0 0 0 0 0 0 0 0 0 0 0 0 0 0 0 0 0 0 0 0 0 0
0 0 0 0 0 0 0 0 0 0 0 0 0 0 0 0 0 0 0 0 0 0 0 0 0 0 0 0 0 0 0 0 0 0 0 0 0 0 0 0 0 0 0
0 0 0 0 0 0 0 0 0 0 0 0 0 0 0 0 0 0 0 0 0 0 0 0 0 0 0 0 0 0 0 0 0 0 0 0 0 0 0 0 0 0 0
0 0 0 0 0 0 0 0 0 0 0 0 0 0 0 0 0 0 0 0 0 0 0 0 0 0 0 0 0 0 0 0 0 0 0 0 0 0 0 0 0 0 0
0 0 0 0 0 0 0 0 0 0 0 0 0 0 0 0 0 0 0 0 0 0 0 0 0 0 0 0 0 0 0 0 0 0 0 0 0 0 0 0 0 0 0
0 0 0 0 0 0 0 0 0 0 0 0 0 0 0 0 0 0 0 0 0 0 0 0 0 0 0 0 0 0 0 0 0 0 0 0 0 0 0 0 0 0 0
0 0 0 0 0 0 0 0 0 0 0 0 0 0 0 0 0 0 0 0 0 0 0 0 0 0 0 0 0 0 0 0 0 0 0 0 0 0 0 0 0 0 0
0 0 0 0 0 0 0 0 0 0 0 0 0 0 0 0 0 0 0 0 0 0 0 0 0 0 0 0 0 0 0 0 0 0 0 0 0 0 0 0 0 0 0
0 0 0 0 0 0 0 0 0 0 0 0 0 0 0 0 0 0 0 0 0 0 0 0 0 0 0 0 0 0 0 0 0 0 0 0 0 0 0 0 0 0 0
0 0 0 0 0 0 0 0 0 0 0 0 0 0 0 0 0 0 0 0 0 0 0 0 0 0 0 0 0 0 0 0 0 0 0 0 0 0 0 0 0 0 0
0 0 0 0 0 0 0 0 0 0 0 0 0 0 0 0 0 0 0 0 0 0 0 0 0 0 0 0 0 0 0 0 0 0 0 0 0 0 0 0 0 0 0
0 0 0 0 0 0 0 0 0 0 0 0 0 0 0 0 0 0 0 0 0 0 0 0 0 0 0 0 0 0 0 0 0 0 0 0 0 0 0 0 0 0 0
0 0 0 0 0 0 0 0 0 0 0 0 0 0 0 0 0 0 0 0 0 0 0 0 0 0 0 0 0 0 0 0 0 0 0 0 0 0 0 0 0 0 0
0 0 0 0 0 0 0 0 0 0 0 0 0 0 0 0 0 0 0 0 0 0 0 0 0 0 0 0 0 0 0 0 0 0 0 0 0 0 0 0 0 0 0
0 0 0 0 0 0 0 0 0 0 0 0 0 0 0 0 0 0 0 0 0 0 0 0 0 0 0 0 0 0 0 0 0 0 0 0 0 0 0 0 0 0 0
0 0 0 0 0 0 0 0 0 0 0 0 0 0 0 0 0 0 0 0 0 0 0 0 0 0 0 0 0 0 0 0 0 0 0 0 0 0 0 0 0 0 0
0 0 0 0 0 0 0 0 0 0 0 0 0 0 0 0 0 0 0 0 0 0 0 0 0 0 0 0 0 0 0 0 0 0 0 0 0 0 0 0 0 0 0
0 0 0 0 0 0 0 0 0 0 0 0 0 0 0 0 0 0 0 0 0 0 0 0 0 0 0 0 0 0 0 0 0 0 0 0 0 0 0 0 0 0 0
0 0 0 0 0 0 0 0 0 0 0 0 0 0 0 0 0 0 0 0 0 0 0 0 0 0 0 0 0 0 0 0 0 0 0 0 0 0 0 0 0 0 0
0 0 0 0 0 0 0 0 0 0 0 0 0 0 0 0 0 0 0 0 0 0 0 0 0 0 0 0 0 0 0 0 0 0 0 0 0 0 0 0 0 0 0
0 0 0 0 0 0 0 0 0 0 0 0 0 0 0 0 0 0 0 0 0 0 0 0 0 0 0 0 0 0 0 0 0 0 0 0 0 0 0 0 0 0 0
0 0 0 0 0 0 0 0 0 0 0 0 0 0 0 0 0 0 0 0 0 0 0 0 0 0 0 0 0 0 0 0 0 0 0 0 0 0 0 0 0 0 0
0 0 0 0 0 0 0 0 0 0 0 0 0 0 0 0 0 0 0 0 0 0 0 0 0 0 0 0 0 0 0 0 0 0 0 0 0 0 0 0 0 0 0
0 0 0 0 0 0 0 0 0 0 0 0 0 0 0 0 0 0 0 0 0 0 0 0 0 0 0 0 0 0 0 0 0 0 0 0 0 0 0 0 0 0 0
Wind_Speed
1 1 1 1 1 1 0 0 0 1 1 1 1 1 0 0 0 0 1 3 2 3 3 3 3 4 4 4 4 4 4 4 5 5 5 6 6 6 6 7 8 8 9
1 1 1 1 1 1 0 0 0 1 1 1 1 1 1 0 1 1 0 1 2 3 3 4 4 5 5 5 5 5 5 5 5 6 6 6 7 7 8 8 9 9 9
1 1 1 1 1 1 1 0 0 1 1 1 1 1 1 1 1 1 1 1 0 1 2 3 4 4 5 5 6 5 6 6 7 7 7 7 7 8 9 9 10 10 10
2 1 1 1 1 1 1 1 1 1 1 2 1 1 1 1 2 2 1 1 1 1 0 2 4 4 5 5 6 6 6 7 7 7 8 8 8 9 9 9 10 10 11
2 2 1 1 1 1 1 1 1 1 1 2 2 2 2 2 2 2 2 2 2 2 2 1 2 3 4 5 6 7 7 8 8 8 9 9 9 9 9 10 10 11 11
3 2 2 2 2 2 2 2 2 2 1 2 2 2 2 2 2 3 3 3 2 2 2 3 2 2 3 5 7 8 8 9 9 9 9 10 10 10 10 10 11 11 12
3 3 2 2 2 2 2 3 2 2 1 1 2 2 2 3 3 3 3 3 3 2 2 3 3 3 2 4 5 8 9 9 9 10 10 10 10 10 11 11 11 11 11
3 3 3 3 3 3 3 3 3 2 1 1 2 2 3 3 3 3 2 3 3 3 3 3 3 4 3 3 3 6 8 9 10 10 10 10 11 11 11 12 12 12 12
3 3 3 3 3 3 3 3 3 3 2 2 2 2 3 3 1 3 3 3 3 3 3 3 4 4 4 3 4 4 7 9 10 11 11 11 11 12 12 12 12 13 13
2 2 3 3 3 2 3 3 3 3 3 2 2 2 3 3 3 2 3 3 3 4 4 3 3 4 4 3 3 5 6 8 10 11 11 11 12 12 12 12 12 13 13
1 2 2 2 2 2 2 2 2 2 2 2 2 2 2 3 4 4 4 3 3 3 3 4 3 3 3 4 3 4 6 7 8 9 10 10 11 12 12 12 12 12 12
1 1 2 2 2 2 2 2 2 3 2 3 3 3 3 3 3 4 5 4 4 3 4 3 3 3 3 4 4 5 7 7 8 9 9 10 10 11 12 12 11 12 12
2 2 2 2 2 2 2 2 3 3 3 3 3 3 3 3 3 3 4 5 5 4 4 4 3 3 3 4 4 5 6 7 8 8 9 9 10 10 11 11 11 11 12
2 2 2 2 2 2 2 3 2 3 3 4 4 4 3 3 3 3 4 4 5 4 4 4 3 3 3 4 4 6 5 6 7 8 9 9 9 9 10 10 11 11 12
2 3 3 3 3 3 3 3 3 4 4 4 4 4 4 3 3 3 4 4 4 5 5 4 3 3 3 3 4 5 5 6 8 8 7 8 8 9 9 10 10 11 12
2 3 3 3 3 3 4 4 4 4 5 4 4 5 5 4 3 3 3 4 4 5 5 3 4 5 5 4 5 6 5 7 7 6 7 7 8 8 9 10 10 11 12
3 3 3 3 3 4 4 4 4 4 5 5 4 5 5 5 4 3 4 4 4 5 6 5 4 5 6 5 5 5 5 5 4 5 7 7 8 8 8 9 10 11 12
3 3 3 4 4 4 4 5 5 5 5 5 5 5 5 4 5 4 4 5 5 5 6 6 5 5 6 5 5 5 4 4 4 5 7 8 8 8 9 10 10 10 11
3 3 4 4 4 4 5 5 5 5 5 5 5 5 6 6 6 5 5 5 4 5 5 5 5 4 4 4 5 4 5 4 4 4 6 7 7 8 9 9 10 10 11
3 3 4 4 4 4 5 5 5 5 5 5 5 5 6 6 6 6 5 5 5 5 5 4 4 4 4 4 4 4 4 4 4 4 5 6 6 8 8 9 9 9 10
3 3 4 4 4 4 4 5 5 5 5 5 5 6 6 6 7 6 5 5 5 5 5 4 4 4 4 4 4 4 4 4 5 4 4 4 5 5 5 6 7 8 10
3 3 4 4 4 3 4 6 6 5 5 6 6 5 5 6 7 8 9 9 8 7 6 5 5 5 5 5 4 4 4 4 4 2 4 5 5 5 4 4 6 9 10
3 3 4 4 4 4 5 6 7 6 6 6 6 5 4 5 6 6 7 9 9 10 9 7 7 7 6 5 5 5 5 5 6 4 4 5 5 5 5 4 7 9 9
3 3 3 4 4 4 5 6 6 5 5 6 6 6 6 6 5 6 6 6 7 7 7 7 7 7 6 6 6 6 5 6 5 4 4 5 5 5 5 4 6 7 8
3 3 3 4 4 4 5 5 6 4 4 5 5 6 6 6 7 7 6 6 6 6 7 9 9 8 8 7 5 3 4 4 4 4 3 3 4 5 5 4 4 6 7
3 3 3 4 4 5 5 5 6 4 4 4 4 5 6 7 7 7 6 6 6 5 5 5 5 5 5 6 7 5 4 4 4 3 2 2 3 3 4 3 3 4 5
Wind_Direction
156 159 142 126 113 95 120 112 150 142 146 144 160 197 201 228 236 217 91 58 8 349 340 336 331 325 319 315 306 304 302 301 300 306 308 306 302 304 307 306 308 308 308
180 175 144 138 125 124 94 111 249 244 221 208 199 207 225 233 240 234 290 114 59 1 337 323 318 314 314 314 310 303 303 304 303 301 303 305 305 301 299 297 297 300 301
194 181 175 172 154 159 161 184 179 260 249 223 208 207 224 240 251 247 252 272 205 59 350 327 317 313 312 311 313 313 310 306 304 304 305 306 305 303 297 295 292 294 297
188 194 192 190 181 185 186 195 214 223 238 237 229 216 222 226 238 249 244 252 277 281 326 343 318 311 312 314 314 314 315 313 309 306 305 303 299 298 300 298 295 295 296
188 195 204 196 203 195 197 211 224 243 247 249 243 239 236 233 235 241 240 244 257 273 281 302 297 308 311 311 310 309 309 310 310 308 307 303 299 297 296 299 299 295 294
195 199 200 194 202 205 207 212 218 242 247 261 251 244 244 244 243 243 246 244 248 258 270 277 263 267 290 302 305 305 304 304 305 307 307 305 301 299 297 297 299 300 298
196 198 197 192 201 208 214 215 216 224 233 249 248 243 235 236 241 241 245 246 246 256 268 273 275 280 265 272 293 301 301 301 303 303 305 306 306 303 299 299 301 302 303
205 200 197 196 201 207 210 209 210 220 227 239 258 255 240 217 214 229 239 247 256 263 265 273 279 277 284 284 298 298 299 300 301 303 304 308 307 306 303 301 299 300 302
210 207 202 200 201 205 207 213 217 220 223 231 254 264 261 251 240 211 232 242 256 266 271 274 276 278 282 287 289 289 300 301 301 300 302 305 307 307 306 307 306 305 304
205 197 199 197 202 211 211 214 222 228 227 224 231 253 281 301 273 253 219 236 260 269 275 277 273 274 278 281 288 305 307 304 303 302 303 307 307 308 309 309 308 308 309
201 193 195 193 201 206 213 213 215 224 233 240 240 238 245 260 265 268 263 256 258 261 276 279 273 275 281 283 286 308 309 308 306 305 307 311 314 314 312 310 311 312 312
197 198 199 192 204 206 212 219 217 221 225 238 245 244 246 248 250 257 268 275 272 270 274 269 267 270 278 283 289 310 302 303 306 308 309 310 310 312 313 314 314 315 314
210 212 204 203 207 211 211 214 215 223 224 229 236 242 246 253 261 263 270 278 279 281 270 263 266 269 276 284 287 302 287 295 301 303 305 306 306 308 310 312 315 317 318
218 214 207 210 212 215 214 217 221 228 229 228 235 242 247 248 248 251 264 276 280 271 261 266 273 270 285 289 300 293 285 291 295 297 301 305 308 310 312 312 315 317 317
215 216 216 215 214 219 225 228 227 229 231 230 233 240 247 248 247 249 254 261 271 278 273 269 274 280 293 289 297 289 292 298 293 291 298 307 309 309 311 312 313 314 314
222 220 227 228 224 223 223 225 230 230 232 233 234 236 243 249 248 246 248 252 257 268 273 277 283 289 291 289 292 290 293 296 284 290 300 306 307 307 308 310 312 313 313
223 226 231 234 233 233 231 230 231 234 235 237 236 240 244 248 249 246 247 250 250 255 266 277 283 287 285 287 293 294 293 291 288 292 300 302 306 307 309 311 315 316 314
227 228 232 235 237 235 233 235 237 237 239 241 241 245 246 247 246 249 247 250 253 255 265 275 280 286 287 287 291 294 299 297 293 295 294 296 300 304 306 309 311 312 314
235 232 232 235 239 239 237 239 239 241 242 242 243 246 250 249 248 249 250 253 258 259 259 265 275 284 290 292 295 297 299 298 297 293 290 287 291 298 301 303 307 309 311
246 244 240 241 242 242 242 241 243 245 247 247 248 248 250 250 250 252 252 252 257 261 259 261 271 278 289 292 289 293 299 302 300 299 292 293 290 290 291 296 301 306 310
256 257 253 250 247 244 243 246 246 247 248 249 248 246 246 247 250 252 255 255 254 256 257 260 266 273 278 282 282 288 289 300 297 295 300 300 298 295 295 293 297 306 310
252 253 253 257 259 257 250 250 252 250 249 250 252 251 247 239 240 244 249 257 257 256 256 254 259 264 270 274 280 278 286 292 294 297 302 301 301 297 302 301 309 311 311
258 260 261 262 265 267 261 256 253 255 253 252 253 253 249 246 245 246 248 251 253 253 252 257 257 259 263 264 267 271 273 276 281 288 298 292 297 298 304 303 305 309 312
263 266 266 266 268 270 265 259 260 253 255 254 253 251 249 250 245 248 249 252 255 255 258 257 257 257 259 260 256 262 271 281 282 273 276 283 295 298 304 301 303 310 313
265 267 265 263 265 269 265 263 263 258 254 256 254 252 249 249 246 249 251 254 258 261 257 257 260 261 261 256 256 257 255 263 280 281 277 274 288 301 296 292 297 304 308
264 268 263 262 264 269 271 269 262 250 254 259 257 251 243 247 251 250 252 253 255 261 269 263 255 253 249 238 236 240 244 250 274 278 257 267 283 304 297 288 300 308 305